Cut Bank, MT

12:07 AM MDT on April 23, 2017 (GMT -0600)
Cut Bank Municipal

Weather History for KCTB - April, 2013

Change the Weather History Date:

Friday, April 12, 2013

  Actual Average Record
Temperature  
Mean Temperature 35 °F 40 °F  
Max Temperature 46 °F 52 °F 79 °F (1913)
Min Temperature 24 °F 28 °F 3 °F (1997)
Degree Days  
Heating Degree Days 30 25  
Month to date heating degree days 337 319  
Since 1 July heating degree days 7131 7417  
Cooling Degree Days 0 0  
Month to date cooling degree days 0 0  
Year to date cooling degree days 0 0  
Moisture  
Dew Point 27 °F    
Average Humidity 71    
Maximum Humidity 100    
Minimum Humidity 42    
Precipitation  
Precipitation 0.05 in 0.03 in 0.40 in (2012)
Month to date precipitation 0.13 0.25  
Year to date precipitation 1.43 1.16  
Snow  
Snow 0.00 in - - ()
Snow Depth 2.00 in    
Sea Level Pressure  
Sea Level Pressure 29.98 in    
Wind  
Wind Speed 9 mph (NNW)    
Max Wind Speed 21 mph    
Max Gust Speed 25 mph    
Visibility 7 miles    
Events Snow    
T = Trace of Precipitation, MM = Missing Value Source: NWS Daily Summary

Daily Weather History Graph

Daily Weather History Graph

Search for Another Location

Airport or City:

Trip Planner

Search our weather history database for the weather conditions in past years. The results will help you decide how hot, cold, wet, or windy it might be!

Date:

Astronomy

Apr. 12, 2013 Rise Set
Actual Time 6:44 AM MDT 8:17 PM MDT
Civil Twilight 6:11 AM MDT 8:49 PM MDT
Nautical Twilight 5:31 AM MDT 9:30 PM MDT
Astronomical Twilight 4:48 AM MDT 10:13 PM MDT
Moon 7:45 AM MDT (4/12) 11:04 PM MDT (4/12)
Length of Visible Light 14h 38m
Length of Day
13h 32m
Waxing Crescent, 5% of the Moon is Illuminated
Apr 12
Waxing Crescent
Apr 18
First Quarter
Apr 25
Full
May 2
Last Quarter
May 9
New

Hourly Weather History & Observations

Time (MDT) Temp. Windchill Dew Point Humidity Pressure Visibility Wind Dir Wind Speed Gust Speed Precip Events Conditions
12:03 AM 32.0 °F 24.2 °F 30.2 °F 93% 29.99 in 1.5 mi North 9.2 mph - 0.00 in Snow Light Snow
12:16 AM 30.2 °F 23.4 °F 30.2 °F 100% 29.99 in 2.0 mi North 6.9 mph - 0.00 in Snow Light Snow
12:29 AM 30.2 °F 22.6 °F 30.2 °F 100% 30.00 in 2.0 mi North 8.1 mph - 0.00 in Snow Light Snow
12:38 AM 30.2 °F 23.4 °F 30.2 °F 100% 30.00 in 3.0 mi North 6.9 mph - 0.00 in Snow Light Snow
12:56 AM 30.9 °F 23.5 °F 30.0 °F 96% 30.05 in 1.5 mi North 8.1 mph - 0.00 in Snow Light Snow
1:06 AM 30.2 °F 21.9 °F 30.2 °F 100% 30.01 in 1.2 mi North 9.2 mph - 0.01 in Snow Light Snow
1:26 AM 30.2 °F 22.6 °F 30.2 °F 100% 30.01 in 0.8 mi North 8.1 mph - 0.02 in Snow Light Snow
1:32 AM 30.2 °F 21.9 °F 30.2 °F 100% 30.01 in 1.0 mi North 9.2 mph - 0.02 in Snow Light Snow
1:38 AM 30.2 °F 21.9 °F 30.2 °F 100% 30.01 in 0.8 mi North 9.2 mph - 0.02 in Snow Light Snow
1:56 AM 30.0 °F 21.1 °F 30.0 °F 100% 30.06 in 1.0 mi NNW 10.4 mph - 0.04 in Snow Light Snow
2:04 AM 30.2 °F 21.3 °F 30.2 °F 100% 30.02 in 1.2 mi NNW 10.4 mph - 0.01 in Snow Light Snow
2:27 AM 30.2 °F 20.2 °F 30.2 °F 100% 30.02 in 1.5 mi North 12.7 mph - 0.01 in Snow Light Snow
2:34 AM 30.2 °F 21.9 °F 28.4 °F 93% 30.02 in 3.0 mi NNW 9.2 mph - 0.01 in Snow Light Snow
2:46 AM 30.2 °F 21.3 °F 28.4 °F 93% 30.02 in 10.0 mi NNW 10.4 mph - 0.01 in   Overcast
2:56 AM 30.0 °F 21.1 °F 28.9 °F 96% 30.06 in 10.0 mi NW 10.4 mph - 0.01 in   Overcast
3:56 AM 28.9 °F 22.8 °F 27.0 °F 92% 30.07 in 10.0 mi North 5.8 mph - 0.00 in   Overcast
4:56 AM 26.1 °F 16.8 °F 24.1 °F 92% 30.10 in 10.0 mi NNW 9.2 mph - N/A   Overcast
5:56 AM 27.0 °F 19.5 °F 24.1 °F 89% 30.11 in 10.0 mi West 6.9 mph - N/A   Overcast
6:56 AM 26.1 °F 17.6 °F 24.1 °F 92% 30.15 in 10.0 mi West 8.1 mph - N/A   Overcast
7:38 AM 26.6 °F 19.1 °F 24.8 °F 93% 30.06 in 10.0 mi West 6.9 mph - N/A   Overcast
7:56 AM 26.1 °F 18.4 °F 24.1 °F 92% 30.16 in 10.0 mi West 6.9 mph - N/A   Mostly Cloudy
8:56 AM 26.1 °F 19.4 °F 24.1 °F 92% 30.16 in 10.0 mi West 5.8 mph - N/A   Clear
9:56 AM 27.0 °F 21.6 °F 25.0 °F 92% 30.14 in 10.0 mi West 4.6 mph - N/A   Clear
10:56 AM 30.0 °F - 26.1 °F 85% 30.12 in 10.0 mi Calm Calm - N/A   Clear
11:56 AM 33.1 °F - 28.0 °F 82% 30.09 in 10.0 mi Calm Calm - N/A   Clear
12:56 PM 36.0 °F 27.5 °F 26.1 °F 67% 30.04 in 10.0 mi SSE 12.7 mph - N/A   Partly Cloudy
1:56 PM 37.9 °F 30.5 °F 27.0 °F 65% 29.99 in 10.0 mi South 11.5 mph 19.6 mph N/A   Scattered Clouds
2:56 PM 44.1 °F 37.4 °F 28.9 °F 55% 29.94 in 10.0 mi South 13.8 mph - N/A   Partly Cloudy
3:56 PM 44.1 °F 39.5 °F 26.1 °F 49% 29.89 in 10.0 mi SSW 8.1 mph 18.4 mph N/A   Mostly Cloudy
4:56 PM 46.0 °F 40.6 °F 25.0 °F 44% 29.86 in 10.0 mi SSE 11.5 mph - N/A   Mostly Cloudy
5:56 PM 45.0 °F 40.1 °F 25.0 °F 46% 29.83 in 10.0 mi South 9.2 mph - N/A   Mostly Cloudy
6:56 PM 44.1 °F 38.1 °F 25.0 °F 47% 29.78 in 10.0 mi SSE 11.5 mph - N/A   Overcast
7:56 PM 42.1 °F 37.1 °F 26.1 °F 53% 29.75 in 10.0 mi SE 8.1 mph - N/A   Overcast
8:56 PM 41.0 °F 34.3 °F 24.1 °F 51% 29.71 in 10.0 mi SE 11.5 mph - N/A   Overcast
9:56 PM 39.9 °F 31.8 °F 21.9 °F 49% 29.70 in 10.0 mi SE 15.0 mph - N/A   Overcast
10:56 PM 39.0 °F 32.8 °F 21.9 °F 50% 29.67 in 10.0 mi SSE 9.2 mph - N/A   Overcast
11:56 PM 37.9 °F 31.5 °F 23.0 °F 55% 29.61 in 10.0 mi ESE 9.2 mph - N/A   Overcast